Year,Month,Day,Hour,Minute,Value (Times are PST for temperature in C)
2006,12,11,00,00,7.40
2006,12,11,00,01,7.30
2006,12,11,00,02,7.30
2006,12,11,00,03,7.30
2006,12,11,00,04,7.30
2006,12,11,00,05,7.30
2006,12,11,00,06,7.30
2006,12,11,00,07,7.30
2006,12,11,00,08,7.30
2006,12,11,00,09,7.20
2006,12,11,00,10,7.20
2006,12,11,00,11,7.20
2006,12,11,00,12,7.30
2006,12,11,00,13,7.30
2006,12,11,00,14,7.30
2006,12,11,00,15,7.30
2006,12,11,00,16,7.30
2006,12,11,00,17,7.30
2006,12,11,00,18,7.30
2006,12,11,00,19,7.20
2006,12,11,00,20,7.30
2006,12,11,00,21,7.30
2006,12,11,00,22,7.30
2006,12,11,00,23,7.30
2006,12,11,00,24,7.30
2006,12,11,00,25,7.30
2006,12,11,00,26,7.30
2006,12,11,00,27,7.30
2006,12,11,00,28,7.30
2006,12,11,00,29,7.30
2006,12,11,00,30,7.30
2006,12,11,00,31,7.20
2006,12,11,00,32,7.20
2006,12,11,00,33,7.20
2006,12,11,00,34,7.20
2006,12,11,00,35,7.20
2006,12,11,00,36,7.20
2006,12,11,00,37,7.20
2006,12,11,00,38,7.20
2006,12,11,00,39,7.20
2006,12,11,00,40,7.20
2006,12,11,00,41,7.20
2006,12,11,00,42,7.20
2006,12,11,00,43,7.20
2006,12,11,00,44,7.20
2006,12,11,00,45,7.20
2006,12,11,00,46,7.20
2006,12,11,00,47,7.20
2006,12,11,00,48,7.20
2006,12,11,00,49,7.30
2006,12,11,00,50,7.30
2006,12,11,00,51,7.30
2006,12,11,00,52,7.30
2006,12,11,00,53,7.30
2006,12,11,00,54,7.30
2006,12,11,00,55,7.40
2006,12,11,00,56,7.40
2006,12,11,00,57,7.40
2006,12,11,00,58,7.40
2006,12,11,00,59,7.40
2006,12,11,01,00,7.40
2006,12,11,01,01,7.30
2006,12,11,01,02,7.30
2006,12,11,01,03,7.30
2006,12,11,01,04,7.30
2006,12,11,01,05,7.30
2006,12,11,01,06,7.30
2006,12,11,01,07,7.30
2006,12,11,01,08,7.30
2006,12,11,01,09,7.30
2006,12,11,01,10,7.30
2006,12,11,01,11,7.30
2006,12,11,01,12,7.30
2006,12,11,01,13,7.30
2006,12,11,01,14,7.30
2006,12,11,01,15,7.30
2006,12,11,01,16,7.30
2006,12,11,01,17,7.30
2006,12,11,01,18,7.30
2006,12,11,01,19,7.30
2006,12,11,01,20,7.30
2006,12,11,01,21,7.40
2006,12,11,01,22,7.40
2006,12,11,01,23,7.50
2006,12,11,01,24,7.50
2006,12,11,01,25,7.60
2006,12,11,01,26,7.60
2006,12,11,01,27,7.70
2006,12,11,01,28,7.70
2006,12,11,01,29,7.70
2006,12,11,01,30,7.70
2006,12,11,01,31,7.80
2006,12,11,01,32,7.80
2006,12,11,01,33,7.90
2006,12,11,01,34,7.90
2006,12,11,01,35,8.00
2006,12,11,01,36,8.00
2006,12,11,01,37,8.10
2006,12,11,01,38,8.10
2006,12,11,01,39,8.10
2006,12,11,01,40,8.10
2006,12,11,01,41,8.10
2006,12,11,01,42,8.10
2006,12,11,01,43,8.20
2006,12,11,01,44,8.20
2006,12,11,01,45,8.20
2006,12,11,01,46,8.20
2006,12,11,01,47,8.20
2006,12,11,01,48,8.20
2006,12,11,01,49,8.20
2006,12,11,01,50,8.20
2006,12,11,01,51,8.20
2006,12,11,01,52,8.20
2006,12,11,01,53,8.20
2006,12,11,01,54,8.20
2006,12,11,01,55,8.20
2006,12,11,01,56,8.20
2006,12,11,01,57,8.20
2006,12,11,01,58,8.20
2006,12,11,01,59,8.20
2006,12,11,02,00,8.20
2006,12,11,02,01,8.20
2006,12,11,02,02,8.20
2006,12,11,02,03,8.10
2006,12,11,02,04,8.10
2006,12,11,02,05,8.10
2006,12,11,02,06,8.10
2006,12,11,02,07,8.10
2006,12,11,02,08,8.10
2006,12,11,02,09,8.10
2006,12,11,02,10,8.00
2006,12,11,02,11,8.00
2006,12,11,02,12,8.00
2006,12,11,02,13,8.00
2006,12,11,02,14,8.00
2006,12,11,02,15,8.00
2006,12,11,02,16,8.10
2006,12,11,02,17,8.10
2006,12,11,02,18,8.10
2006,12,11,02,19,8.10
2006,12,11,02,20,8.10
2006,12,11,02,21,8.10
2006,12,11,02,22,8.10
2006,12,11,02,23,8.10
2006,12,11,02,24,8.10
2006,12,11,02,25,8.10
2006,12,11,02,26,8.10
2006,12,11,02,27,8.10
2006,12,11,02,28,8.10
2006,12,11,02,29,8.10
2006,12,11,02,30,8.10
2006,12,11,02,31,8.10
2006,12,11,02,32,8.00
2006,12,11,02,33,8.00
2006,12,11,02,34,8.00
2006,12,11,02,35,8.00
2006,12,11,02,36,8.00
2006,12,11,02,37,8.00
2006,12,11,02,38,7.90
2006,12,11,02,39,7.90
2006,12,11,02,40,7.90
2006,12,11,02,41,7.90
2006,12,11,02,42,7.90
2006,12,11,02,43,7.90
2006,12,11,02,44,7.90
2006,12,11,02,45,7.90
2006,12,11,02,46,7.90
2006,12,11,02,47,7.90
2006,12,11,02,48,7.90
2006,12,11,02,49,7.90
2006,12,11,02,50,7.90
2006,12,11,02,51,7.90
2006,12,11,02,52,8.00
2006,12,11,02,53,8.00
2006,12,11,02,54,7.90
2006,12,11,02,55,7.90
2006,12,11,02,56,7.90
2006,12,11,02,57,7.90
2006,12,11,02,58,8.00
2006,12,11,02,59,8.00
2006,12,11,03,00,7.90
2006,12,11,03,01,7.90
2006,12,11,03,02,7.90
2006,12,11,03,03,7.90
2006,12,11,03,04,7.90
2006,12,11,03,05,7.90
2006,12,11,03,06,7.90
2006,12,11,03,07,7.90
2006,12,11,03,08,7.90
2006,12,11,03,09,7.90
2006,12,11,03,10,7.90
2006,12,11,03,11,7.90
2006,12,11,03,12,7.90
2006,12,11,03,13,7.90
2006,12,11,03,14,8.00
2006,12,11,03,15,8.00
2006,12,11,03,16,8.00
2006,12,11,03,17,8.10
2006,12,11,03,18,8.10
2006,12,11,03,19,8.10
2006,12,11,03,20,8.10
2006,12,11,03,21,8.20
2006,12,11,03,22,8.20
2006,12,11,03,23,8.20
2006,12,11,03,24,8.20
2006,12,11,03,25,8.20
2006,12,11,03,26,8.20
2006,12,11,03,27,8.20
2006,12,11,03,28,8.20
2006,12,11,03,29,8.20
2006,12,11,03,30,8.20
2006,12,11,03,31,8.30
2006,12,11,03,32,8.30
2006,12,11,03,33,8.20
2006,12,11,03,34,8.20
2006,12,11,03,35,8.20
2006,12,11,03,36,8.30
2006,12,11,03,37,8.30
2006,12,11,03,38,8.30
2006,12,11,03,39,8.30
2006,12,11,03,40,8.30
2006,12,11,03,41,8.30
2006,12,11,03,42,8.30
2006,12,11,03,43,8.30
2006,12,11,03,44,8.30
2006,12,11,03,45,8.30
2006,12,11,03,46,8.20
2006,12,11,03,47,8.20
2006,12,11,03,48,8.20
2006,12,11,03,49,8.20
2006,12,11,03,50,8.20
2006,12,11,03,51,8.20
2006,12,11,03,52,8.20
2006,12,11,03,53,8.20
2006,12,11,03,54,8.20
2006,12,11,03,55,8.20
2006,12,11,03,56,8.30
2006,12,11,03,57,8.30
2006,12,11,03,58,8.30
2006,12,11,03,59,8.30
2006,12,11,04,00,8.30
2006,12,11,04,01,8.30
2006,12,11,04,02,8.30
2006,12,11,04,03,8.20
2006,12,11,04,04,8.20
2006,12,11,04,05,8.20
2006,12,11,04,06,8.20
2006,12,11,04,07,8.20
2006,12,11,04,08,8.20
2006,12,11,04,09,8.20
2006,12,11,04,10,8.20
2006,12,11,04,11,8.20
2006,12,11,04,12,8.20
2006,12,11,04,13,8.10
2006,12,11,04,14,8.10
2006,12,11,04,15,8.10
2006,12,11,04,16,8.10
2006,12,11,04,17,8.10
2006,12,11,04,18,8.10
2006,12,11,04,19,8.10
2006,12,11,04,20,8.10
2006,12,11,04,21,8.10
2006,12,11,04,22,8.10
2006,12,11,04,23,8.10
2006,12,11,04,24,8.10
2006,12,11,04,25,8.10
2006,12,11,04,26,8.10
2006,12,11,04,27,8.10
2006,12,11,04,28,8.10
2006,12,11,04,29,8.10
2006,12,11,04,30,8.10
2006,12,11,04,31,8.10
2006,12,11,04,32,8.10
2006,12,11,04,33,8.10
2006,12,11,04,34,8.10
2006,12,11,04,35,8.00
2006,12,11,04,36,8.00
2006,12,11,04,37,8.00
2006,12,11,04,38,8.00
2006,12,11,04,39,8.00
2006,12,11,04,40,8.00
2006,12,11,04,41,8.00
2006,12,11,04,42,7.90
2006,12,11,04,43,7.90
2006,12,11,04,44,7.90
2006,12,11,04,45,7.90
2006,12,11,04,46,7.90
2006,12,11,04,47,8.00
2006,12,11,04,48,7.90
2006,12,11,04,49,7.90
2006,12,11,04,50,7.90
2006,12,11,04,51,7.90
2006,12,11,04,52,7.90
2006,12,11,04,53,7.90
2006,12,11,04,54,7.90
2006,12,11,04,55,7.90
2006,12,11,04,56,7.90
2006,12,11,04,57,7.90
2006,12,11,04,58,7.90
2006,12,11,04,59,7.90
2006,12,11,05,00,7.90
2006,12,11,05,01,7.90
2006,12,11,05,02,7.90
2006,12,11,05,03,7.90
2006,12,11,05,04,8.00
2006,12,11,05,05,8.00
2006,12,11,05,06,8.00
2006,12,11,05,07,8.00
2006,12,11,05,08,8.00
2006,12,11,05,09,8.00
2006,12,11,05,10,8.10
2006,12,11,05,11,8.10
2006,12,11,05,12,8.00
2006,12,11,05,13,8.00
2006,12,11,05,14,8.10
2006,12,11,05,15,8.10
2006,12,11,05,16,8.10
2006,12,11,05,17,8.10
2006,12,11,05,18,8.00
2006,12,11,05,19,8.00
2006,12,11,05,20,8.00
2006,12,11,05,21,8.00
2006,12,11,05,22,8.00
2006,12,11,05,23,8.00
2006,12,11,05,24,7.90
2006,12,11,05,25,7.90
2006,12,11,05,26,7.90
2006,12,11,05,27,7.90
2006,12,11,05,28,7.90
2006,12,11,05,29,7.90
2006,12,11,05,30,7.80
2006,12,11,05,31,7.80
2006,12,11,05,32,7.80
2006,12,11,05,33,7.80
2006,12,11,05,34,7.80
2006,12,11,05,35,7.80
2006,12,11,05,36,7.80
2006,12,11,05,37,7.80
2006,12,11,05,38,7.80
2006,12,11,05,39,7.80
2006,12,11,05,40,7.80
2006,12,11,05,41,7.80
2006,12,11,05,42,7.80
2006,12,11,05,43,7.80
2006,12,11,05,44,7.80
2006,12,11,05,45,7.80
2006,12,11,05,46,7.80
2006,12,11,05,47,7.80
2006,12,11,05,48,7.80
2006,12,11,05,49,7.80
2006,12,11,05,50,7.80
2006,12,11,05,51,7.90
2006,12,11,05,52,7.90
2006,12,11,05,53,7.80
2006,12,11,05,54,7.80
2006,12,11,05,55,7.80
2006,12,11,05,56,7.80
2006,12,11,05,57,7.90
2006,12,11,05,58,7.90
2006,12,11,05,59,7.90
2006,12,11,06,00,7.90
2006,12,11,06,01,7.90
2006,12,11,06,02,7.90
2006,12,11,06,03,7.90
2006,12,11,06,04,7.90
2006,12,11,06,05,7.90
2006,12,11,06,06,7.90
2006,12,11,06,07,7.90
2006,12,11,06,08,7.90
2006,12,11,06,09,7.90
2006,12,11,06,10,7.90
2006,12,11,06,11,7.90
2006,12,11,06,12,8.00
2006,12,11,06,13,8.00
2006,12,11,06,14,8.00
2006,12,11,06,15,8.00
2006,12,11,06,16,8.00
2006,12,11,06,17,8.00
2006,12,11,06,18,8.00
2006,12,11,06,19,8.00
2006,12,11,06,20,8.00
2006,12,11,06,21,8.10
2006,12,11,06,22,8.10
2006,12,11,06,23,8.10
2006,12,11,06,24,8.10
2006,12,11,06,25,8.10
2006,12,11,06,26,8.10
2006,12,11,06,27,8.10
2006,12,11,06,28,8.10
2006,12,11,06,29,8.10
2006,12,11,06,30,8.20
2006,12,11,06,31,8.20
2006,12,11,06,32,8.20
2006,12,11,06,33,8.20
2006,12,11,06,34,8.20
2006,12,11,06,35,8.20
2006,12,11,06,36,8.30
2006,12,11,06,37,8.30
2006,12,11,06,38,8.30
2006,12,11,06,39,8.30
2006,12,11,06,40,8.30
2006,12,11,06,41,8.30
2006,12,11,06,42,8.30
2006,12,11,06,43,8.30
2006,12,11,06,44,8.30
2006,12,11,06,45,8.30
2006,12,11,06,46,8.30
2006,12,11,06,47,8.30
2006,12,11,06,48,8.30
2006,12,11,06,49,8.30
2006,12,11,06,50,8.30
2006,12,11,06,51,8.30
2006,12,11,06,52,8.30
2006,12,11,06,53,8.30
2006,12,11,06,54,8.30
2006,12,11,06,55,8.30
2006,12,11,06,56,8.30
2006,12,11,06,57,8.30
2006,12,11,06,58,8.30
2006,12,11,06,59,8.30
2006,12,11,07,00,8.30
2006,12,11,07,01,8.30
2006,12,11,07,02,8.30
2006,12,11,07,03,8.30
2006,12,11,07,04,8.30
2006,12,11,07,05,8.30
2006,12,11,07,06,8.30
2006,12,11,07,07,8.30
2006,12,11,07,08,8.30
2006,12,11,07,09,8.30
2006,12,11,07,10,8.30
2006,12,11,07,11,8.30
2006,12,11,07,12,8.30
2006,12,11,07,13,8.30
2006,12,11,07,14,8.30
2006,12,11,07,15,8.30
2006,12,11,07,16,8.30
2006,12,11,07,17,8.30
2006,12,11,07,18,8.40
2006,12,11,07,19,8.40
2006,12,11,07,20,8.40
2006,12,11,07,21,8.40
2006,12,11,07,22,8.40
2006,12,11,07,23,8.50
2006,12,11,07,24,8.50
2006,12,11,07,25,8.60
2006,12,11,07,26,8.60
2006,12,11,07,27,8.60
2006,12,11,07,28,8.60
2006,12,11,07,29,8.60
2006,12,11,07,30,8.60
2006,12,11,07,31,8.60
2006,12,11,07,32,8.60
2006,12,11,07,33,8.60
2006,12,11,07,34,8.60
2006,12,11,07,35,8.60
2006,12,11,07,36,8.60
2006,12,11,07,37,8.60
2006,12,11,07,38,8.60
2006,12,11,07,39,8.60
2006,12,11,07,40,8.60
2006,12,11,07,41,8.60
2006,12,11,07,42,8.60
2006,12,11,07,43,8.60
2006,12,11,07,44,8.60
2006,12,11,07,45,8.60
2006,12,11,07,46,8.60
2006,12,11,07,47,8.60
2006,12,11,07,48,8.60
2006,12,11,07,49,8.60
2006,12,11,07,50,8.60
2006,12,11,07,51,8.60
2006,12,11,07,52,8.60
2006,12,11,07,53,8.70
2006,12,11,07,54,8.70
2006,12,11,07,55,8.70
2006,12,11,07,56,8.70
2006,12,11,07,57,8.70
2006,12,11,07,58,8.70
2006,12,11,07,59,8.70
2006,12,11,08,00,8.70
2006,12,11,08,01,8.70
2006,12,11,08,02,8.70
2006,12,11,08,03,8.70
2006,12,11,08,04,8.70
2006,12,11,08,05,8.70
2006,12,11,08,06,8.70
2006,12,11,08,07,8.70
2006,12,11,08,08,8.70
2006,12,11,08,09,8.70
2006,12,11,08,10,8.70
2006,12,11,08,11,8.70
2006,12,11,08,12,8.70
2006,12,11,08,13,8.70
2006,12,11,08,14,8.70
2006,12,11,08,15,8.70
2006,12,11,08,16,8.70
2006,12,11,08,17,8.70
2006,12,11,08,18,8.80
2006,12,11,08,19,8.80
2006,12,11,08,20,8.80
2006,12,11,08,21,8.80
2006,12,11,08,22,8.80
2006,12,11,08,23,8.80
2006,12,11,08,24,8.80
2006,12,11,08,25,8.90
2006,12,11,08,26,8.90
2006,12,11,08,27,8.90
2006,12,11,08,28,8.90
2006,12,11,08,29,9.00
2006,12,11,08,30,9.00
2006,12,11,08,31,9.10
2006,12,11,08,32,9.10
2006,12,11,08,33,9.10
2006,12,11,08,34,9.10
2006,12,11,08,35,9.10
2006,12,11,08,36,9.10
2006,12,11,08,37,9.10
2006,12,11,08,38,9.10
2006,12,11,08,39,9.00
2006,12,11,08,40,9.00
2006,12,11,08,41,8.90
2006,12,11,08,42,8.90
2006,12,11,08,43,8.90
2006,12,11,08,44,8.90
2006,12,11,08,45,8.90
2006,12,11,08,46,8.90
2006,12,11,08,47,8.80
2006,12,11,08,48,8.80
2006,12,11,08,49,8.80
2006,12,11,08,50,8.80
2006,12,11,08,51,8.80
2006,12,11,08,52,8.80
2006,12,11,08,53,8.80
2006,12,11,08,54,8.80
2006,12,11,08,55,8.80
2006,12,11,08,56,8.80
2006,12,11,08,57,8.80
2006,12,11,08,58,8.80
2006,12,11,08,59,8.80
2006,12,11,09,00,8.80
2006,12,11,09,01,8.80
2006,12,11,09,02,8.80
2006,12,11,09,03,8.80
2006,12,11,09,04,8.90
2006,12,11,09,05,8.90
2006,12,11,09,06,8.90
2006,12,11,09,07,8.90
2006,12,11,09,08,8.90
2006,12,11,09,09,8.90
2006,12,11,09,10,8.90
2006,12,11,09,11,9.00
2006,12,11,09,12,9.00
2006,12,11,09,13,9.00
2006,12,11,09,14,9.00
2006,12,11,09,15,9.00
2006,12,11,09,16,9.00
2006,12,11,09,17,9.10
2006,12,11,09,18,9.10
2006,12,11,09,19,9.10
2006,12,11,09,20,9.20
2006,12,11,09,21,9.20
2006,12,11,09,22,9.20
2006,12,11,09,23,9.20
2006,12,11,09,24,9.20
2006,12,11,09,25,9.20
2006,12,11,09,26,9.20
2006,12,11,09,27,9.20
2006,12,11,09,28,9.20
2006,12,11,09,29,9.20
2006,12,11,09,30,9.20
2006,12,11,09,31,9.20
2006,12,11,09,32,9.30
2006,12,11,09,33,9.30
2006,12,11,09,34,9.30
2006,12,11,09,35,9.30
2006,12,11,09,36,9.30
2006,12,11,09,37,9.30
2006,12,11,09,38,9.30
2006,12,11,09,39,9.30
2006,12,11,09,40,9.30
2006,12,11,09,41,9.30
2006,12,11,09,42,9.30
2006,12,11,09,43,9.30
2006,12,11,09,44,9.30
2006,12,11,09,45,9.20
2006,12,11,09,46,9.20
2006,12,11,09,47,9.20
2006,12,11,09,48,9.20
2006,12,11,09,49,9.10
2006,12,11,09,50,9.10
2006,12,11,09,51,9.10
2006,12,11,09,52,9.10
2006,12,11,09,53,9.10
2006,12,11,09,54,9.10
2006,12,11,09,55,9.10
2006,12,11,09,56,9.10
2006,12,11,09,57,9.10
2006,12,11,09,58,9.10
2006,12,11,09,59,9.10
2006,12,11,10,00,9.10
2006,12,11,10,01,9.10
2006,12,11,10,02,9.10
2006,12,11,10,03,9.10
2006,12,11,10,04,9.10
2006,12,11,10,05,9.10
2006,12,11,10,06,9.10
2006,12,11,10,07,9.20
2006,12,11,10,08,9.20
2006,12,11,10,09,9.20
2006,12,11,10,10,9.20
2006,12,11,10,11,9.30
2006,12,11,10,12,9.30
2006,12,11,10,13,9.30
2006,12,11,10,14,9.30
2006,12,11,10,15,9.30
2006,12,11,10,16,9.30
2006,12,11,10,17,9.30
2006,12,11,10,18,9.30
2006,12,11,10,19,9.30
2006,12,11,10,20,9.30
2006,12,11,10,21,9.30
2006,12,11,10,22,9.30
2006,12,11,10,23,9.30
2006,12,11,10,24,9.30
2006,12,11,10,25,9.30
2006,12,11,10,26,9.30
2006,12,11,10,27,9.20
2006,12,11,10,28,9.20
2006,12,11,10,29,9.20
2006,12,11,10,30,9.20
2006,12,11,10,31,9.20
2006,12,11,10,32,9.20
2006,12,11,10,33,9.20
2006,12,11,10,34,9.20
2006,12,11,10,35,9.30
2006,12,11,10,36,9.30
2006,12,11,10,37,9.30
2006,12,11,10,38,9.30
2006,12,11,10,39,9.30
2006,12,11,10,40,9.30
2006,12,11,10,41,9.30
2006,12,11,10,42,9.30
2006,12,11,10,43,9.30
2006,12,11,10,44,9.30
2006,12,11,10,45,9.30
2006,12,11,10,46,9.30
2006,12,11,10,47,9.30
2006,12,11,10,48,9.30
2006,12,11,10,49,9.30
2006,12,11,10,50,9.30
2006,12,11,10,51,9.30
2006,12,11,10,52,9.30
2006,12,11,10,53,9.30
2006,12,11,10,54,9.30
2006,12,11,10,55,9.30
2006,12,11,10,56,9.30
2006,12,11,10,57,9.30
2006,12,11,10,58,9.20
2006,12,11,10,59,9.20
2006,12,11,11,00,9.20
2006,12,11,11,01,9.20
2006,12,11,11,02,9.20
2006,12,11,11,03,9.20
2006,12,11,11,04,9.20
2006,12,11,11,05,9.20
2006,12,11,11,06,9.20
2006,12,11,11,07,9.20
2006,12,11,11,08,9.20
2006,12,11,11,09,9.20
2006,12,11,11,10,9.20
2006,12,11,11,11,9.20
2006,12,11,11,12,9.10
2006,12,11,11,13,9.10
2006,12,11,11,14,9.10
2006,12,11,11,15,9.10
2006,12,11,11,16,9.10
2006,12,11,11,17,9.10
2006,12,11,11,18,9.10
2006,12,11,11,19,9.10
2006,12,11,11,20,9.10
2006,12,11,11,21,9.10
2006,12,11,11,22,9.10
2006,12,11,11,23,9.10
2006,12,11,11,24,9.10
2006,12,11,11,25,9.10
2006,12,11,11,26,9.10
2006,12,11,11,27,9.10
2006,12,11,11,28,9.00
2006,12,11,11,29,9.00
2006,12,11,11,30,9.00
2006,12,11,11,31,9.00
2006,12,11,11,32,9.00
2006,12,11,11,33,8.90
2006,12,11,11,34,8.90
2006,12,11,11,35,8.90
2006,12,11,11,36,8.90
2006,12,11,11,37,8.90
2006,12,11,11,38,8.90
2006,12,11,11,39,8.90
2006,12,11,11,40,8.90
2006,12,11,11,41,8.90
2006,12,11,11,42,8.90
2006,12,11,11,43,8.90
2006,12,11,11,44,8.90
2006,12,11,11,45,8.90
2006,12,11,11,46,8.90
2006,12,11,11,47,8.90
2006,12,11,11,48,8.90
2006,12,11,11,49,8.90
2006,12,11,11,50,8.90
2006,12,11,11,51,8.90
2006,12,11,11,52,8.90
2006,12,11,11,53,8.90
2006,12,11,11,54,8.90
2006,12,11,11,55,8.90
2006,12,11,11,56,9.00
2006,12,11,11,57,9.00
2006,12,11,11,58,9.10
2006,12,11,11,59,9.10
2006,12,11,12,00,9.10
2006,12,11,12,01,9.10
2006,12,11,12,02,9.20
2006,12,11,12,03,9.20
2006,12,11,12,04,9.20
2006,12,11,12,05,9.20
2006,12,11,12,06,9.30
2006,12,11,12,07,9.30
2006,12,11,12,08,9.40
2006,12,11,12,09,9.40
2006,12,11,12,10,9.40
2006,12,11,12,11,9.50
2006,12,11,12,12,9.50
2006,12,11,12,13,9.60
2006,12,11,12,14,9.60
2006,12,11,12,15,9.60
2006,12,11,12,16,9.60
2006,12,11,12,17,9.60
2006,12,11,12,18,9.60
2006,12,11,12,19,9.60
2006,12,11,12,20,9.60
2006,12,11,12,21,9.60
2006,12,11,12,22,9.60
2006,12,11,12,23,9.60
2006,12,11,12,24,9.60
2006,12,11,12,25,9.60
2006,12,11,12,26,9.60
2006,12,11,12,27,9.60
2006,12,11,12,28,9.60
2006,12,11,12,29,9.60
2006,12,11,12,30,9.70
2006,12,11,12,31,9.70
2006,12,11,12,32,9.80
2006,12,11,12,33,9.80
2006,12,11,12,34,9.90
2006,12,11,12,35,9.90
2006,12,11,12,36,9.90
2006,12,11,12,37,10.00
2006,12,11,12,38,10.00
2006,12,11,12,39,10.00
2006,12,11,12,40,10.10
2006,12,11,12,41,10.10
2006,12,11,12,42,10.10
2006,12,11,12,43,10.20
2006,12,11,12,44,10.20
2006,12,11,12,45,10.20
2006,12,11,12,46,10.20
2006,12,11,12,47,10.20
2006,12,11,12,48,10.30
2006,12,11,12,49,10.30
2006,12,11,12,50,10.30
2006,12,11,12,51,10.30
2006,12,11,12,52,10.30
2006,12,11,12,53,10.30
2006,12,11,12,54,10.30
2006,12,11,12,55,10.30
2006,12,11,12,56,10.30
2006,12,11,12,57,10.30
2006,12,11,12,58,10.30
2006,12,11,12,59,10.30
2006,12,11,13,00,10.30
2006,12,11,13,01,10.30
2006,12,11,13,02,10.30
2006,12,11,13,03,10.30
2006,12,11,13,04,10.30
2006,12,11,13,05,10.30
2006,12,11,13,06,10.40
2006,12,11,13,07,10.40
2006,12,11,13,08,10.40
2006,12,11,13,09,10.50
2006,12,11,13,10,10.40
2006,12,11,13,11,10.40
2006,12,11,13,12,10.40
2006,12,11,13,13,10.50
2006,12,11,13,14,10.50
2006,12,11,13,15,10.50
2006,12,11,13,16,10.50
2006,12,11,13,17,10.50
2006,12,11,13,18,10.60
2006,12,11,13,19,10.60
2006,12,11,13,20,10.60
2006,12,11,13,21,10.70
2006,12,11,13,22,10.70
2006,12,11,13,23,10.70
2006,12,11,13,24,10.70
2006,12,11,13,25,10.70
2006,12,11,13,26,10.70
2006,12,11,13,27,10.70
2006,12,11,13,28,10.70
2006,12,11,13,29,10.70
2006,12,11,13,30,10.70
2006,12,11,13,31,10.70
2006,12,11,13,32,10.70
2006,12,11,13,33,10.70
2006,12,11,13,34,10.70
2006,12,11,13,35,10.70
2006,12,11,13,36,10.80
2006,12,11,13,37,10.80
2006,12,11,13,38,10.90
2006,12,11,13,39,10.90
2006,12,11,13,40,11.00
2006,12,11,13,41,11.10
2006,12,11,13,42,11.10
2006,12,11,13,43,11.00
2006,12,11,13,44,11.00
2006,12,11,13,45,10.90
2006,12,11,13,46,10.90
2006,12,11,13,47,10.90
2006,12,11,13,48,10.80
2006,12,11,13,49,10.80
2006,12,11,13,50,10.80
2006,12,11,13,51,10.80
2006,12,11,13,52,10.80
2006,12,11,13,53,10.70
2006,12,11,13,54,10.70
2006,12,11,13,55,10.70
2006,12,11,13,56,10.70
2006,12,11,13,57,10.70
2006,12,11,13,58,10.70
2006,12,11,13,59,10.70
2006,12,11,14,00,10.70
2006,12,11,14,01,10.70
2006,12,11,14,02,10.70
2006,12,11,14,03,10.80
2006,12,11,14,04,10.80
2006,12,11,14,05,10.80
2006,12,11,14,06,10.90
2006,12,11,14,07,10.90
2006,12,11,14,08,10.90
2006,12,11,14,09,10.90
2006,12,11,14,10,11.00
2006,12,11,14,11,11.00
2006,12,11,14,12,11.00
2006,12,11,14,13,11.00
2006,12,11,14,14,11.00
2006,12,11,14,15,11.00
2006,12,11,14,16,11.00
2006,12,11,14,17,11.00
2006,12,11,14,18,11.00
2006,12,11,14,19,11.00
2006,12,11,14,20,10.90
2006,12,11,14,21,10.90
2006,12,11,14,22,10.90
2006,12,11,14,23,10.90
2006,12,11,14,24,10.90
2006,12,11,14,25,10.90
2006,12,11,14,26,11.00
2006,12,11,14,27,11.00
2006,12,11,14,28,10.90
2006,12,11,14,29,10.90
2006,12,11,14,30,11.00
2006,12,11,14,31,11.10
2006,12,11,14,32,11.10
2006,12,11,14,33,11.20
2006,12,11,14,34,11.20
2006,12,11,14,35,11.30
2006,12,11,14,36,11.30
2006,12,11,14,37,11.30
2006,12,11,14,38,11.30
2006,12,11,14,39,11.30
2006,12,11,14,40,11.30
2006,12,11,14,41,11.20
2006,12,11,14,42,11.20
2006,12,11,14,43,11.20
2006,12,11,14,44,11.10
2006,12,11,14,45,11.10
2006,12,11,14,46,11.10
2006,12,11,14,47,11.10
2006,12,11,14,48,11.10
2006,12,11,14,49,11.10
2006,12,11,14,50,11.10
2006,12,11,14,51,11.20
2006,12,11,14,52,11.20
2006,12,11,14,53,11.20
2006,12,11,14,54,11.20
2006,12,11,14,55,11.20
2006,12,11,14,56,11.20
2006,12,11,14,57,11.20
2006,12,11,14,58,11.30
2006,12,11,14,59,11.30
2006,12,11,15,00,11.30
2006,12,11,15,01,11.40
2006,12,11,15,02,11.40
2006,12,11,15,03,11.50
2006,12,11,15,04,11.50
2006,12,11,15,05,11.50
2006,12,11,15,06,11.60
2006,12,11,15,07,11.60
2006,12,11,15,08,11.60
2006,12,11,15,09,11.60
2006,12,11,15,10,11.50
2006,12,11,15,11,11.50
2006,12,11,15,12,11.40
2006,12,11,15,13,11.40
2006,12,11,15,14,11.30
2006,12,11,15,15,11.30
2006,12,11,15,16,11.30
2006,12,11,15,17,11.20
2006,12,11,15,18,11.20
2006,12,11,15,19,11.20
2006,12,11,15,20,11.20
2006,12,11,15,21,11.20
2006,12,11,15,22,11.20
2006,12,11,15,23,11.10
2006,12,11,15,24,11.10
2006,12,11,15,25,11.10
2006,12,11,15,26,11.10
2006,12,11,15,27,11.10
2006,12,11,15,28,11.00
2006,12,11,15,29,11.00
2006,12,11,15,30,11.00
2006,12,11,15,31,11.00
2006,12,11,15,32,10.90
2006,12,11,15,33,10.90
2006,12,11,15,34,10.90
2006,12,11,15,35,10.90
2006,12,11,15,36,10.90
2006,12,11,15,37,10.90
2006,12,11,15,38,11.00
2006,12,11,15,39,11.00
2006,12,11,15,40,11.00
2006,12,11,15,41,11.00
2006,12,11,15,42,11.00
2006,12,11,15,43,10.90
2006,12,11,15,44,10.90
2006,12,11,15,45,10.90
2006,12,11,15,46,10.90
2006,12,11,15,47,10.90
2006,12,11,15,48,10.80
2006,12,11,15,49,10.80
2006,12,11,15,50,10.70
2006,12,11,15,51,10.60
2006,12,11,15,52,10.60
2006,12,11,15,53,10.50
2006,12,11,15,54,10.40
2006,12,11,15,55,10.40
2006,12,11,15,56,10.30
2006,12,11,15,57,10.30
2006,12,11,15,58,10.30
2006,12,11,15,59,10.20
2006,12,11,16,00,10.20
2006,12,11,16,01,10.10
2006,12,11,16,02,10.10
2006,12,11,16,03,10.10
2006,12,11,16,04,10.00
2006,12,11,16,05,10.00
2006,12,11,16,06,10.00
2006,12,11,16,07,10.00
2006,12,11,16,08,9.90
2006,12,11,16,09,9.90
2006,12,11,16,10,9.90
2006,12,11,16,11,9.90
2006,12,11,16,12,9.80
2006,12,11,16,13,9.80
2006,12,11,16,14,9.80
2006,12,11,16,15,9.80
2006,12,11,16,16,9.80
2006,12,11,16,17,9.80
2006,12,11,16,18,9.70
2006,12,11,16,19,9.70
2006,12,11,16,20,9.70
2006,12,11,16,21,9.60
2006,12,11,16,22,9.60
2006,12,11,16,23,9.50
2006,12,11,16,24,9.50
2006,12,11,16,25,9.40
2006,12,11,16,26,9.40
2006,12,11,16,27,9.40
2006,12,11,16,28,9.30
2006,12,11,16,29,9.30
2006,12,11,16,30,9.30
2006,12,11,16,31,9.30
2006,12,11,16,32,9.30
2006,12,11,16,33,9.30
2006,12,11,16,34,9.30
2006,12,11,16,35,9.20
2006,12,11,16,36,9.20
2006,12,11,16,37,9.20
2006,12,11,16,38,9.20
2006,12,11,16,39,9.20
2006,12,11,16,40,9.20
2006,12,11,16,41,9.20
2006,12,11,16,42,9.10
2006,12,11,16,43,9.10
2006,12,11,16,44,9.00
2006,12,11,16,45,9.00
2006,12,11,16,46,8.90
2006,12,11,16,47,8.90
2006,12,11,16,48,8.80
2006,12,11,16,49,8.80
2006,12,11,16,50,8.70
2006,12,11,16,51,8.70
2006,12,11,16,52,8.70
2006,12,11,16,53,8.70
2006,12,11,16,54,8.70
2006,12,11,16,55,8.70
2006,12,11,16,56,8.70
2006,12,11,16,57,8.70
2006,12,11,16,58,8.70
2006,12,11,16,59,8.70
2006,12,11,17,00,8.70
2006,12,11,17,01,8.70
2006,12,11,17,02,8.70
2006,12,11,17,03,8.70
2006,12,11,17,04,8.70
2006,12,11,17,05,8.70
2006,12,11,17,06,8.70
2006,12,11,17,07,8.70
2006,12,11,17,08,8.70
2006,12,11,17,09,8.70
2006,12,11,17,10,8.70
2006,12,11,17,11,8.80
2006,12,11,17,12,8.80
2006,12,11,17,13,8.80
2006,12,11,17,14,8.90
2006,12,11,17,15,8.90
2006,12,11,17,16,8.90
2006,12,11,17,17,8.90
2006,12,11,17,18,8.90
2006,12,11,17,19,8.90
2006,12,11,17,20,8.90
2006,12,11,17,21,8.90
2006,12,11,17,22,8.90
2006,12,11,17,23,8.90
2006,12,11,17,24,9.00
2006,12,11,17,25,9.00
2006,12,11,17,26,9.00
2006,12,11,17,27,9.00
2006,12,11,17,28,9.00
2006,12,11,17,29,9.00
2006,12,11,17,30,9.00
2006,12,11,17,31,9.00
2006,12,11,17,32,9.10
2006,12,11,17,33,9.10
2006,12,11,17,34,9.10
2006,12,11,17,35,9.10
2006,12,11,17,36,9.10
2006,12,11,17,37,9.10
2006,12,11,17,38,9.20
2006,12,11,17,39,9.20
2006,12,11,17,40,9.20
2006,12,11,17,41,9.30
2006,12,11,17,42,9.30
2006,12,11,17,43,9.30
2006,12,11,17,44,9.30
2006,12,11,17,45,9.30
2006,12,11,17,46,9.30
2006,12,11,17,47,9.30
2006,12,11,17,48,9.30
2006,12,11,17,49,9.30
2006,12,11,17,50,9.30
2006,12,11,17,51,9.30
2006,12,11,17,52,9.30
2006,12,11,17,53,9.30
2006,12,11,17,54,9.20
2006,12,11,17,55,9.20
2006,12,11,17,56,9.20
2006,12,11,17,57,9.20